Portada
METAR-TAF:

METAR-TAF

Aeroports :

Thomson-McDuffie County Airport

Thomson, Geòrgia, Estats Units d'Amèrica

latitud: 33-31-46N, longitud: 082-30-59W, altitud: 152 m

Observació

L'informe es va fer fa 19 minuts, a les 17:35 UTC
Vent 7 kt del Sud-Est
Temperatura 21°C
Humitat 94%
Pressió 1019 hPa
Visibilitat: 16.1 km
Cel cobert a una alçada de 1200 ft
pluja

METAR: KHQU 261735Z AUTO 14007KT 10SM -RA OVC012 21/20 A3010 RMK AO2 LTG DSNT SW T02110203

Hora: 13:54 (17:54 UTC)


TAF: manca

Observacions i pronòstics meteorològics de més de 4000 aeroports (METAR i TAF).

Les estacions disponibles són els punts grocs i vermells al mapa.

Posi el ratolí al punt desitjat per veure el nom de l'estació.

Feu clic per veure les observacions i els pronòstics meteorològics.

Per canviar el mapa: feu clic els botons verds amb una creu de color negre per apropar; al botó verd amb un guió per allunyar la imatge; o en les fletxes verdes per a mapes adjacents.


METAR-TAF: